Regional Weather Roundup
Issued by NWS

Home | Current Version | Previous Version | Graphics & Text | Print | Product List | Glossary On
Versions: 1 2 3 4 5 6 7 8 9 10 11 12 13 14 15 16 17 18 19 20 21 22 23 24 25 26 27 28 29 30 31 32 33 34 35 36 37 38 39 40 41 42 43 44 45 46 47 48 49 50
000
ASUS45 KBOI 282110
RWRID

IDAHO REGIONAL WEATHER ROUNDUP
NATIONAL WEATHER SERVICE BOISE ID
300 PM MDT TUE MAR 28 2017

NOTE: "FAIR" INDICATES FEW OR NO CLOUDS BELOW 12000 FEET
WITH NO SIGNIFICANT WEATHER AND/OR OBSTRUCTIONS TO VISIBILITY

IDZ012-014-282200-
SOUTHWEST IDAHO


CITY           SKY/WX    TMP DP  RH WIND       PRES   REMARKS
BOISE          MOSUNNY   53  29  39 NW13G21   30.26F
CALDWELL       SUNNY     54  33  45 W9        30.28F
MOUNTAIN HOME  MOSUNNY   54  30  40 NW22      30.24F
$$

IDZ016-017-282200-
SOUTHCENTRAL IDAHO


CITY           SKY/WX    TMP DP  RH WIND       PRES   REMARKS
BURLEY         SUNNY     50  25  37 W15G25    30.20F
JEROME         SUNNY     50  24  36 W21       30.21F
TWIN FALLS     SUNNY     50  26  39 W17G29    30.22F
$$

IDZ019>023-282200-
SOUTHEAST IDAHO


CITY           SKY/WX    TMP DP  RH WIND       PRES   REMARKS
IDAHO FALLS    MOSUNNY   49  26  41 NW7       30.17F
POCATELLO      MOSUNNY   49  31  49 SW12      30.21S
REXBURG        MOSUNNY   48  26  42 SW7       30.16F
$$

IDZ006-010-011-018-031-032-282200-
CENTRAL IDAHO MOUNTAINS


CITY           SKY/WX    TMP DP  RH WIND       PRES   REMARKS
MCCALL         PTSUNNY   42  22  44 W8        30.21S
HAILEY         MOSUNNY   46  25  42 W10       30.18F
STANLEY          N/A     40  19  43 N8        30.18F WCI  34
SALMON         SUNNY     50  21  32 W3        30.15F
CHALLIS        SUNNY     49  21  33 S6        30.14F
$$

IDZ002-004-006-007-026-282200-
NORTHERN IDAHO


CITY           SKY/WX    TMP DP  RH WIND       PRES   REMARKS
LEWISTON       CLOUDY    54  35  48 N3        30.24F
LOWELL           N/A     53  34  48 CALM      30.27F
COEUR D`ALENE  LGT RAIN  43  37  79 S14       30.22F
MULLAN PASS    LGT SNOW  28  27  96 SW9G20    30.15F FOG     WCI  19
$$



USA.gov is the U.S. government's official web portal to all federal, state and local government web resources and services.